Ellensburg, WA
on Tuesday, December 18, 2012

Tuesday
Previous Day Next Day
Daily Summary
 ActualAverage (KYKM)Record (KYKM)
Temperature
Mean Temperature °F / °C 28°F / -2°C  
Max Temperature 30°F / -1°C 35°F / 2°C 55°F / 12°C (1974)
Min Temperature 12°F / -11°C 21°F / -6°C -10°F / -23°C (1984)
Degree Days
Heating Degree Days 44 37  
Month to date heating degree days 643  
Since 1 July heating degree days 2176  
Cooling Degree Days 0 0  
Month to date cooling degree days 0  
Year to date cooling degree days 472  
Moisture
Dew Point 13°F / -11°C   
Average Humidity 78    
Maximum Humidity 84    
Minimum Humidity 64    
Precipitation
Precipitation 0.00 in / 0.00 cm 0.05 in / 1.27 cm 0.39 in / 0.99 cm (1955)
Month to date precipitation 0.88  
Year to date precipitation 7.60  
Snow
Snow 0.00 in / 0.00 cm 0.30 in / 0.76 cm 4.70 in / 11.94 cm (1955)
Month to date snowfall 5.3  
Year to date snowfall 17.5  
Since 1 July snowfall 8.9  
Snow Depth in / cm   
Wind
Wind Speed 2 mph / 3 km/h   
Max Wind Speed 6 mph / 10 km/h   
Max Gust Speed mph / km/h   
Visibility 10 miles / 16 kilometers   
Events     

Key: T is trace of precipitation, MM is missing value
Source: NWS Daily Summary
Time(PST)TemperatureDew PointHumidity Pressure Visibility Wind DirectionWind SpeedGust SpeedPrecipitationEvents Conditions
12:53 AM 19.9°F / -6.7°C 15.1°F / -9.4°C 81% 29.88 in / 1011.9 hPa 10.0 miles / 16.1 kilometers East 3.5 mph / 5.6 km/h - N/A   Mostly Cloudy
1:53 AM 19.9°F / -6.7°C 15.1°F / -9.4°C 81% 29.89 in / 1012.2 hPa 10.0 miles / 16.1 kilometers East 3.5 mph / 5.6 km/h - N/A   Clear
2:53 AM 18.0°F / -7.8°C 12.9°F / -10.6°C 81% 29.90 in / 1012.5 hPa 10.0 miles / 16.1 kilometers NE 4.6 mph / 7.4 km/h - N/A   Clear
3:53 AM 15.1°F / -9.4°C 10.0°F / -12.2°C 80% 29.91 in / 1012.8 hPa 10.0 miles / 16.1 kilometers Calm Calm - N/A   Clear
4:53 AM 16.0°F / -8.9°C 10.9°F / -11.7°C 81% 29.91 in / 1012.8 hPa 10.0 miles / 16.1 kilometers ENE 5.8 mph / 9.3 km/h - N/A   Mostly Cloudy
5:53 AM 18.0°F / -7.8°C 12.9°F / -10.6°C 81% 29.92 in / 1013.0 hPa 10.0 miles / 16.1 kilometers Calm Calm - N/A   Overcast
6:53 AM 15.1°F / -9.4°C 10.9°F / -11.7°C 84% 29.93 in / 1013.3 hPa 10.0 miles / 16.1 kilometers Calm Calm - N/A   Clear
7:53 AM 14.0°F / -10.0°C 8.1°F / -13.3°C 77% 29.94 in / 1013.6 hPa 10.0 miles / 16.1 kilometers Calm Calm - N/A   Clear
8:53 AM 17.1°F / -8.3°C 10.9°F / -11.7°C 77% 29.95 in / 1014.1 hPa 10.0 miles / 16.1 kilometers ENE 3.5 mph / 5.6 km/h - N/A   Clear
9:53 AM 23.0°F / -5.0°C 17.1°F / -8.3°C 78% 29.95 in / 1014.2 hPa 10.0 miles / 16.1 kilometers East 3.5 mph / 5.6 km/h - N/A   Clear
10:53 AM 21.0°F / -6.1°C 15.1°F / -9.4°C 78% 29.96 in / 1014.5 hPa 10.0 miles / 16.1 kilometers Calm Calm - N/A   Clear
11:53 AM 25.0°F / -3.9°C 17.1°F / -8.3°C 72% 29.94 in / 1013.9 hPa 10.0 miles / 16.1 kilometers East 4.6 mph / 7.4 km/h - N/A   Clear
12:53 PM 27.0°F / -2.8°C 18.0°F / -7.8°C 69% 29.94 in / 1013.7 hPa 10.0 miles / 16.1 kilometers Calm Calm - N/A   Clear
1:53 PM 30.9°F / -0.6°C 19.9°F / -6.7°C 64% 29.93 in / 1013.3 hPa 10.0 miles / 16.1 kilometers Calm Calm - N/A   Clear
2:53 PM 26.1°F / -3.3°C 18.0°F / -7.8°C 71% 29.94 in / 1013.9 hPa 10.0 miles / 16.1 kilometers East 3.5 mph / 5.6 km/h - N/A   Partly Cloudy
3:53 PM 25.0°F / -3.9°C 17.1°F / -8.3°C 72% 29.95 in / 1014.1 hPa 10.0 miles / 16.1 kilometers Calm Calm - N/A   Clear
4:53 PM 19.0°F / -7.2°C 14.0°F / -10.0°C 81% 29.97 in / 1014.8 hPa 10.0 miles / 16.1 kilometers Calm Calm - N/A   Clear
5:53 PM 16.0°F / -8.9°C 10.9°F / -11.7°C 81% 29.99 in / 1015.3 hPa 10.0 miles / 16.1 kilometers Calm Calm - N/A   Clear
6:53 PM 16.0°F / -8.9°C 10.0°F / -12.2°C 77% 30.00 in / 1015.7 hPa 10.0 miles / 16.1 kilometers Calm Calm - N/A   Clear
7:53 PM 17.1°F / -8.3°C 10.9°F / -11.7°C 77% 30.02 in / 1016.4 hPa 10.0 miles / 16.1 kilometers SW 3.5 mph / 5.6 km/h - N/A   Clear
8:53 PM 12.0°F / -11.1°C 7.0°F / -13.9°C 80% 30.02 in / 1016.6 hPa 10.0 miles / 16.1 kilometers Calm Calm - N/A   Clear
9:53 PM 12.9°F / -10.6°C 7.0°F / -13.9°C 77% 30.03 in / 1016.7 hPa 10.0 miles / 16.1 kilometers Calm Calm - N/A   Clear
10:53 PM 12.9°F / -10.6°C 8.1°F / -13.3°C 81% 30.04 in / 1017.3 hPa 10.0 miles / 16.1 kilometers Calm Calm - N/A   Clear
11:53 PM 18.0°F / -7.8°C 12.9°F / -10.6°C 81% 30.03 in / 1016.9 hPa 7.0 miles / 11.3 kilometers Calm Calm - N/A   Clear
Moon Phase
Dec. 18 Dec. 20 Dec. 28 Jan. 04 Jan. 11
Sunrise:07:43 AM (PST) Moon Rise:11:04 AM (PST)12/18
Sunset:04:14 PM (PST) Moon Set:11:09 PM (PST)12/18

Copyright © 2014 The Weather Underground, Inc.